Back to catalog

STARLINK-30224

AliveCommunicationsVLEO
NORAD 57416·PAYLOAD·🇺🇸 United States

Launched Jul 20, 2023 from Vandenberg Space Force Base

Loading…

Next Passes (next 24 hours)

TLE

FreshSource: CelesTrak SupGP

Epoch: Sep 14, 2026, 14:07 UTC

1 57416C 23102N   26257.58868056  .00589210  00000+0  63297-2 0  2579
2 57416  42.9994 255.7244 0001777 281.0756 279.7382 15.62555645    15

Track STARLINK-30224 in real time with AllMySat

Download on the App Store